EW3804 Weather Reports


time (UTC)temp
C
wind
direction
speed
KPH
gust
KPH
rain 1hr
cm
rain 24hr
cm
rain mn
cm
humidity
%
barometer
mb
20260509161557 27 314 0.0 8.0 0.00 0.00 0.00 61 1003.6
20260509160046 27 316 0.0 11.3 0.00 0.00 0.00 62 1003.6
20260509154548 26 295 0.0 8.0 0.00 0.00 0.00 67 1003.7
20260509153053 26 5 0.0 3.2 0.00 0.00 0.00 71 1003.7
20260509151537 26 24 0.0 1.6 0.00 0.00 0.00 77 1003.7
20260509150033 25 27 0.0 1.6 0.00 0.00 0.00 79 1003.6
20260509144532 25 24 0.0 0.0 0.00 0.00 0.00 80 1003.4
20260509143029 24 341 0.0 1.6 0.00 0.00 0.00 82 1003.3
20260509141535 24 326 0.0 0.0 0.00 0.00 0.00 84 1003.4
20260509140023 23 345 0.0 8.0 0.00 0.00 0.00 86 1003.3
20260509134522 23 307 0.0 0.0 0.00 0.00 0.00 88 1003.5
20260509133021 23 329 0.0 0.0 0.00 0.00 0.00 90 1003.3
20260509131515 22 283 0.0 0.0 0.00 0.00 0.00 91 1002.6
20260509130012 22 314 0.0 0.0 0.00 0.00 0.00 92 1002.8
20260509124508 21 316 0.0 0.0 0.00 0.00 0.00 94 1003.0
20260509123006 21 233 0.0 0.0 0.00 0.00 0.00 94 1001.4
20260509121504 21 176 0.0 0.0 0.00 0.00 0.00 95 1000.6
20260509120100 -17 0.0 0.0 0.00 0.00 0.00 1000.5
20260509114555 -17 0.0 0.0 0.00 0.00 0.00 1000.6
20260509113051 -17 0.0 0.0 0.00 0.00 0.00 1001.7
20260509111546 -17 0.0 0.0 0.00 0.00 0.00 1002.3
20260509110042 -17 0.0 0.0 0.00 0.00 0.00 1001.9
20260509104538 -17 0.0 0.0 0.00 0.00 0.00 1002.5
20260509103038 -17 0.0 0.0 0.00 0.00 0.00 1002.9
20260509101528 -17 0.0 0.0 0.00 0.00 0.00 1003.1
20260509100028 19 118 0.0 0.0 0.00 0.00 0.00 95 1003.4
20260509094526 20 120 0.0 0.0 0.00 0.00 0.00 94 1003.5
20260509093025 20 120 0.0 0.0 0.00 0.00 0.00 94 1003.4
20260509091522 20 120 0.0 0.0 0.00 0.00 0.00 94 1003.6
20260509090035 20 120 0.0 0.0 0.00 0.00 0.00 94 1003.5
20260509084522 20 120 0.0 1.6 0.00 0.00 0.00 95 1003.5
20260509083024 20 120 0.0 1.6 0.00 0.00 0.00 94 1004.0
20260509081521 19 121 0.0 0.0 0.00 0.00 0.00 94 1004.1
20260509080018 18 121 0.0 0.0 0.00 0.00 0.00 94 1003.9
20260509074517 19 121 0.0 0.0 0.00 0.00 0.00 94 1003.4
20260509073031 19 121 0.0 0.0 0.00 0.00 0.00 94 1003.3
20260509071515 19 121 0.0 1.6 0.00 0.00 0.00 93 1003.2
20260509070016 20 121 0.0 0.0 0.00 0.00 0.00 94 1003.8
20260509064514 19 121 0.0 1.6 0.00 0.00 0.00 94 1003.7
20260509063021 19 120 0.0 0.0 0.00 0.00 0.00 94 1003.5
20260509061507 18 121 0.0 0.0 0.00 0.00 0.00 94 1003.1
20260509060007 18 121 0.0 0.0 0.00 0.00 0.00 94 1002.9
20260509054505 18 121 0.0 0.0 0.00 0.00 0.00 94 1002.6
20260509053002 19 121 0.0 1.6 0.00 0.00 0.00 94 1002.8
20260509051611 19 121 0.0 1.6 0.00 0.00 0.00 94 1003.0
20260509044604 20 120 0.0 1.6 0.00 0.00 0.00 93 1003.1
20260509043059 20 121 0.0 0.0 0.00 0.00 0.00 93 1003.1
20260509041556 20 121 0.0 0.0 0.00 0.00 0.00 93 1003.1
20260509040107 20 121 0.0 0.0 0.00 0.00 0.00 93 1002.9
20260509034554 20 120 0.0 0.0 0.00 0.00 0.00 92 1002.5
20260509033114 21 121 0.0 1.6 0.00 0.00 0.00 92 1002.3
20260509031553 21 120 0.0 1.6 0.00 0.00 0.00 92 1002.2
20260509030052 21 120 0.0 0.0 0.00 0.00 0.00 90 1001.9
20260509024601 21 121 0.0 0.0 0.00 0.00 0.00 92 1001.9
20260509023050 21 121 0.0 0.0 0.00 0.00 0.00 91 1001.7
20260509021551 21 121 0.0 0.0 0.00 0.00 0.00 90 1001.6
20260509014549 22 121 0.0 1.6 0.00 0.00 0.00 89 1001.2
20260509013047 22 121 0.0 0.0 0.00 0.00 0.00 89 1001.3
20260509011551 22 121 0.0 0.0 0.00 0.00 0.00 88 1001.3
20260509010046 22 121 0.0 0.0 0.00 0.00 0.00 87 1001.4
20260509004549 22 121 0.0 1.6 0.00 0.00 0.00 87 1001.5
20260509003053 22 121 0.0 1.6 0.00 0.00 0.00 87 1001.6
20260509001545 22 120 0.0 0.0 0.00 0.00 0.00 86 1001.4
20260509000043 22 136 0.0 0.0 0.00 0.00 0.00 86 1001.4
20260508234544 22 126 0.0 0.0 0.00 0.00 0.00 85 1001.5
20260508233047 22 141 0.0 0.0 0.00 0.00 0.00 85 1001.6
20260508231547 22 127 0.0 0.0 0.00 0.00 0.00 85 1001.5
20260508230044 23 131 0.0 0.0 0.00 0.00 0.00 84 1001.4
20260508224550 22 135 0.0 0.0 0.00 0.00 0.00 84 1001.6
20260508223038 23 144 0.0 0.0 0.00 0.00 0.00 83 1001.7
20260508221536 23 128 0.0 0.0 0.00 0.00 0.00 83 1001.9
20260508220032 23 134 0.0 0.0 0.00 0.00 0.00 83 1002.1
20260508214533 22 136 0.0 0.0 0.00 0.00 0.00 84 1002.4
20260508213027 22 136 0.0 0.0 0.00 0.00 0.00 84 1002.5
20260508211527 22 117 0.0 0.0 0.00 0.00 0.00 83 1002.6
20260508210032 22 84 0.0 1.6 0.00 0.00 0.00 84 1003.0
20260508204521 21 161 0.0 0.0 0.00 0.00 0.00 84 1003.4
20260508203024 21 146 0.0 0.0 0.00 0.00 0.00 83 1003.4
20260508201517 21 136 0.0 0.0 0.00 0.00 0.00 84 1003.6
20260508200014 21 129 0.0 0.0 0.00 0.00 0.00 84 1003.7
20260508194510 21 97 0.0 0.0 0.00 0.00 0.00 84 1003.8
20260508193009 21 115 0.0 0.0 0.00 0.00 0.00 84 1004.0
20260508191506 21 125 0.0 0.0 0.00 0.00 0.00 84 1004.1
20260508190005 20 107 0.0 0.0 0.00 0.00 0.00 84 1004.3
20260508184504 20 115 0.0 0.0 0.00 0.00 0.00 83 1004.4
20260508183001 20 117 0.0 0.0 0.00 0.00 0.00 82 1004.6
20260508181658 20 120 0.0 1.6 0.00 0.00 0.00 83 1004.8
20260508180058 19 49 0.0 1.6 0.00 0.00 0.00 84 1005.2
20260508174554 19 113 0.0 1.6 0.00 0.00 0.00 84 1005.5
20260508173052 19 110 0.0 1.6 0.00 0.00 0.00 84 1005.8
20260508171549 19 107 0.0 1.6 0.00 0.00 0.00 83 1006.0
20260508170048 20 141 0.0 1.6 0.00 0.00 0.00 83 1006.3
20260508164547 20 109 0.0 1.6 0.00 0.00 0.00 82 1006.3
20260508163059 19 101 0.0 0.0 0.00 0.00 0.00 82 1006.3